Weather History for Zapata, TX

Change the Weather History Date:

Monday, January 14, 2013

  Actual Average (KLRD) Record (KLRD)
Temperature  
Mean Temperature 50 °F 56 °F  
Max Temperature 57 °F 67 °F 86 °F (1932)
Min Temperature 43 °F 46 °F 19 °F (1975)
Degree Days  
Heating Degree Days 15 10  
Month to date heating degree days 140  
Since 1 July heating degree days 530  
Cooling Degree Days 0 1  
Month to date cooling degree days 14  
Year to date cooling degree days 14  
Moisture  
Dew Point 34 °F    
Average Humidity 55    
Maximum Humidity 71    
Minimum Humidity 38    
Precipitation  
Precipitation 0.00 in 0.03 in 1.40 in (1902)
Month to date precipitation 0.41  
Year to date precipitation 0.41  
Sea Level Pressure  
Sea Level Pressure 30.11 in    
Wind  
Wind Speed 5 mph (North)    
Max Wind Speed 9 mph    
Max Gust Speed -    
Visibility 10 miles    
Events      
T = Trace of Precipitation, MM = Missing Value Source: NWS Daily Summary

Daily Weather History Graph

Daily Weather History Graph

Search for Another Location

Airport:

Trip Planner

Search our weather history database for the weather conditions in past years. The results will help you decide how hot, cold, wet, or windy it might be!

Date:

Astronomy

Jan. 14, 2013 Rise Set
Actual Time 7:27 AM CST 6:05 PM CST
Civil Twilight 7:02 AM CST 6:30 PM CST
Nautical Twilight 6:34 AM CST 6:58 PM CST
Astronomical Twilight 6:05 AM CST 7:26 PM CST
Moon 9:23 AM CST (1/14) 9:27 PM CST (1/14)
Length of Visible Light 11h 27m
Length of Day
10h 37m
Waxing Crescent, 11% of the Moon is Illuminated
Jan 14
Waxing Crescent
Jan 18
First Quarter
Jan 26
Full
Feb 3
Last Quarter
Feb 10
New

Hourly Weather History & Observations

Time (CST) Temp. Windchill Dew Point Humidity Pressure Visibility Wind Dir Wind Speed Gust Speed Precip Events Conditions
12:35 AM 50.9 °F - 34.2 °F 53% 30.08 in 10.0 mi NNE 5.8 mph - N/A   Clear
12:55 AM 50.7 °F - 34.7 °F 54% 30.09 in 10.0 mi NNE 5.8 mph - N/A   Clear
1:35 AM 49.6 °F - 35.6 °F 59% 30.09 in 10.0 mi NNE 5.8 mph - N/A   Clear
1:55 AM 49.1 °F - 36.1 °F 61% 30.10 in 10.0 mi NNE 3.5 mph - N/A   Clear
2:35 AM 48.4 °F - 34.7 °F 59% 30.10 in 10.0 mi NNE 4.6 mph - N/A   Clear
2:55 AM 48.0 °F - 35.1 °F 61% 30.10 in 10.0 mi North 3.5 mph - N/A   Scattered Clouds
3:15 AM 47.8 °F - 34.7 °F 60% 30.10 in 10.0 mi NNE 4.6 mph - N/A   Mostly Cloudy
3:35 AM 47.3 °F - 34.7 °F 62% 30.10 in 10.0 mi NNE 3.5 mph - N/A   Scattered Clouds
3:55 AM 46.8 °F - 34.7 °F 63% 30.10 in 10.0 mi North 3.5 mph - N/A   Clear
4:15 AM 46.0 °F 44.8 °F 34.9 °F 65% 30.10 in 10.0 mi North 3.5 mph - N/A   Clear
4:35 AM 45.7 °F - 35.2 °F 67% 30.09 in 10.0 mi Calm Calm - N/A   Clear
4:55 AM 45.1 °F 43.7 °F 35.2 °F 68% 30.09 in 10.0 mi North 3.5 mph - N/A   Clear
5:15 AM 44.8 °F 43.3 °F 35.6 °F 70% 30.09 in 10.0 mi North 3.5 mph - N/A   Clear
5:35 AM 45.0 °F 43.5 °F 35.1 °F 68% 30.10 in 10.0 mi North 3.5 mph - N/A   Clear
5:55 AM 44.6 °F 43.1 °F 35.1 °F 69% 30.10 in 10.0 mi North 3.5 mph - N/A   Clear
6:15 AM 44.1 °F 41.5 °F 34.9 °F 70% 30.10 in 10.0 mi North 4.6 mph - N/A   Clear
6:35 AM 44.2 °F 41.0 °F 34.3 °F 68% 30.11 in 10.0 mi North 5.8 mph - N/A   Clear
6:55 AM 44.1 °F 41.5 °F 34.7 °F 70% 30.12 in 10.0 mi North 4.6 mph - N/A   Clear
7:15 AM 43.7 °F 39.7 °F 34.7 °F 71% 30.12 in 10.0 mi North 6.9 mph - N/A   Clear
7:35 AM 43.7 °F 40.3 °F 34.7 °F 71% 30.14 in 10.0 mi North 5.8 mph - N/A   Clear
7:55 AM 43.9 °F 40.5 °F 34.7 °F 70% 30.15 in 10.0 mi North 5.8 mph - N/A   Clear
8:15 AM 44.6 °F 42.2 °F 33.8 °F 66% 30.16 in 10.0 mi North 4.6 mph - N/A   Clear
8:35 AM 45.3 °F 41.1 °F 33.1 °F 62% 30.17 in 10.0 mi NNE 8.1 mph - N/A   Clear
8:55 AM 45.9 °F 42.3 °F 32.9 °F 61% 30.17 in 10.0 mi North 6.9 mph - N/A   Clear
9:15 AM 45.9 °F 41.2 °F 32.7 °F 60% 30.17 in 10.0 mi North 9.2 mph - N/A   Clear
9:35 AM 46.8 °F - 32.2 °F 57% 30.18 in 10.0 mi NNE 6.9 mph - N/A   Clear
9:55 AM 46.9 °F - 32.7 °F 58% 30.19 in 10.0 mi North 6.9 mph - N/A   Clear
10:15 AM 48.4 °F - 32.7 °F 55% 30.19 in 10.0 mi NNE 3.5 mph - N/A   Clear
10:35 AM 48.0 °F - 32.2 °F 54% 30.18 in 10.0 mi NNW 5.8 mph - N/A   Clear
10:55 AM 48.9 °F - 32.7 °F 54% 30.18 in 10.0 mi North 4.6 mph - N/A   Clear
11:15 AM 49.6 °F - 33.1 °F 53% 30.17 in 10.0 mi WNW 4.6 mph - N/A   Clear
11:35 AM 50.2 °F - 33.1 °F 52% 30.16 in 10.0 mi NW 3.5 mph - N/A   Clear
11:55 AM 51.3 °F - 33.3 °F 50% 30.15 in 10.0 mi NNW 4.6 mph - N/A   Clear
12:15 PM 51.6 °F - 32.9 °F 49% 30.13 in 10.0 mi NNE 5.8 mph - N/A   Clear
12:35 PM 52.7 °F - 33.1 °F 47% 30.12 in 10.0 mi NNE 5.8 mph - N/A   Clear
12:55 PM 53.2 °F - 33.1 °F 46% 30.10 in 10.0 mi NW 5.8 mph - N/A   Clear
1:15 PM 54.9 °F - 33.3 °F 44% 30.09 in 10.0 mi North 9.2 mph - N/A   Clear
1:35 PM 54.7 °F - 32.9 °F 44% 30.08 in 10.0 mi North 8.1 mph - N/A   Clear
1:55 PM 55.4 °F - 32.7 °F 42% 30.07 in 10.0 mi Calm Calm - N/A   Clear
2:15 PM 56.3 °F - 33.1 °F 41% 30.06 in 10.0 mi NNW 9.2 mph - N/A   Clear
2:35 PM 56.5 °F - 32.4 °F 40% 30.06 in 10.0 mi NW 5.8 mph - N/A   Clear
2:55 PM 56.5 °F - 32.5 °F 40% 30.06 in 10.0 mi NNW 6.9 mph - N/A   Clear
3:15 PM 57.7 °F - 32.9 °F 39% 30.06 in 10.0 mi NNW 6.9 mph - N/A   Clear
3:35 PM 57.4 °F - 32.4 °F 39% 30.06 in 10.0 mi NW 6.9 mph - N/A   Clear
3:55 PM 57.6 °F - 32.2 °F 38% 30.06 in 10.0 mi North 5.8 mph - N/A   Clear
4:15 PM 57.7 °F - 32.7 °F 39% 30.06 in 10.0 mi North 5.8 mph - N/A   Clear
4:35 PM 57.2 °F - 32.9 °F 40% 30.06 in 10.0 mi North 6.9 mph - N/A   Clear
4:55 PM 57.0 °F - 32.5 °F 40% 30.07 in 10.0 mi NNE 5.8 mph - N/A   Clear
5:15 PM 57.2 °F - 32.9 °F 40% 30.07 in 10.0 mi Calm Calm - N/A   Clear
5:35 PM 56.3 °F - 33.3 °F 42% 30.08 in 10.0 mi North 3.5 mph - N/A   Clear
5:55 PM 55.4 °F - 34.0 °F 44% 30.08 in 10.0 mi North 3.5 mph - N/A   Clear
6:15 PM 54.5 °F - 34.7 °F 47% 30.09 in 10.0 mi North 3.5 mph - N/A   Clear
6:35 PM 53.2 °F - 35.2 °F 51% 30.09 in 10.0 mi Calm Calm - N/A   Clear
8:55 PM 50.0 °F - 35.2 °F 57% 30.09 in 10.0 mi East 5.8 mph - N/A   Clear
9:15 PM 49.6 °F - 35.8 °F 59% 30.08 in 10.0 mi East 4.6 mph - N/A   Clear
11:55 PM 48.2 °F - 36.5 °F 64% 30.07 in 10.0 mi Calm Calm - N/A   Overcast